Beeville, TX

4:52 AM CDT on July 22, 2017 (GMT -0500)
Beeville

Weather History for KBEA - January, 2014

Change the Weather History Date:

Tuesday, January 21, 2014

  Actual Average (KCRP) Record (KCRP)
Temperature  
Mean Temperature 56 °F -  
Max Temperature 67 °F 67 °F 92 °F (2017)
Min Temperature 42 °F 47 °F 22 °F (1985)
Degree Days  
Heating Degree Days 9    
Growing Degree Days 6 (Base 50)    
Moisture  
Dew Point 24 °F    
Average Humidity 27    
Maximum Humidity 45    
Minimum Humidity 17    
Precipitation  
Precipitation 0.00 in - - ()
Sea Level Pressure  
Sea Level Pressure 30.27 in    
Wind  
Wind Speed 16 mph (NNE)    
Max Wind Speed 23 mph    
Max Gust Speed 34 mph    
Visibility 10 miles    
Events      
Averages and records for this station are not official NWS values.
T = Trace of Precipitation, MM = Missing Value Source: NWS Daily Summary

Daily Weather History Graph

Daily Weather History Graph

Search for Another Location

Airport or City:

Trip Planner

Search our weather history database for the weather conditions in past years. The results will help you decide how hot, cold, wet, or windy it might be!

Date:

Astronomy

Jan. 21, 2014 Rise Set
Actual Time 7:23 AM CST 6:02 PM CST
Civil Twilight 6:58 AM CST 6:27 PM CST
Nautical Twilight 6:29 AM CST 6:55 PM CST
Astronomical Twilight 6:01 AM CST 7:23 PM CST
Moon 11:04 PM CST (1/21) 10:22 AM CST (1/21)
Length of Visible Light 11h 28m
Length of Day
10h 38m
Waning Gibbous, 74% of the Moon is Illuminated
Jan 21
Waning Gibbous
Jan 23
Last Quarter
Jan 30
New
Feb 6
First Quarter
Feb 14
Full

Hourly Weather History & Observations

Time (CST) Temp. Windchill Dew Point Humidity Pressure Visibility Wind Dir Wind Speed Gust Speed Precip Events Conditions
12:15 AM 65.5 °F - 31.8 °F 28% 30.08 in 10.0 mi North 19.6 mph 25.3 mph N/A   Clear
12:35 AM 65.7 °F - 30.0 °F 26% 30.08 in 10.0 mi North 19.6 mph 29.9 mph N/A   Clear
12:55 AM 65.7 °F - 29.3 °F 26% 30.09 in 10.0 mi North 21.9 mph 31.1 mph N/A   Clear
1:15 AM 65.3 °F - 29.3 °F 26% 30.10 in 10.0 mi North 21.9 mph 29.9 mph N/A   Clear
1:35 AM 64.4 °F - 29.8 °F 27% 30.11 in 10.0 mi North 18.4 mph 29.9 mph N/A   Clear
1:55 AM 63.9 °F - 29.7 °F 28% 30.11 in 10.0 mi North 18.4 mph 26.5 mph N/A   Clear
2:15 AM 63.1 °F - 29.8 °F 29% 30.12 in 10.0 mi North 17.3 mph 26.5 mph N/A   Clear
2:35 AM 61.7 °F - 29.7 °F 30% 30.13 in 10.0 mi North 13.8 mph 20.7 mph N/A   Clear
2:55 AM 61.3 °F - 29.7 °F 30% 30.14 in 10.0 mi North 17.3 mph 27.6 mph N/A   Clear
3:15 AM 60.8 °F - 29.5 °F 31% 30.15 in 10.0 mi NNE 21.9 mph 28.8 mph N/A   Clear
3:35 AM 59.9 °F - 28.4 °F 30% 30.16 in 10.0 mi North 16.1 mph 28.8 mph N/A   Clear
3:55 AM 59.5 °F - 27.5 °F 30% 30.17 in 10.0 mi North 19.6 mph 25.3 mph N/A   Clear
4:15 AM 59.2 °F - 27.3 °F 30% 30.19 in 10.0 mi NNE 21.9 mph 33.4 mph N/A   Clear
4:35 AM 59.0 °F - 27.3 °F 30% 30.19 in 10.0 mi NNE 21.9 mph 31.1 mph N/A   Clear
4:55 AM 58.3 °F - 27.5 °F 31% 30.20 in 10.0 mi North 21.9 mph 31.1 mph N/A   Clear
5:15 AM 58.1 °F - 27.3 °F 31% 30.22 in 10.0 mi North 21.9 mph 34.5 mph N/A   Clear
5:35 AM 57.4 °F - 26.6 °F 31% 30.23 in 10.0 mi North 23.0 mph 34.5 mph N/A   Clear
5:55 AM 57.0 °F - 26.8 °F 31% 30.25 in 10.0 mi North 20.7 mph 33.4 mph N/A   Clear
6:15 AM 56.3 °F - 25.3 °F 30% 30.26 in 10.0 mi North 23.0 mph 32.2 mph N/A   Clear
6:35 AM 55.8 °F - 23.9 °F 29% 30.27 in 10.0 mi NNE 21.9 mph 28.8 mph N/A   Clear
6:55 AM 55.6 °F - 23.9 °F 29% 30.29 in 10.0 mi NNE 20.7 mph 32.2 mph N/A   Clear
7:15 AM 55.0 °F - 23.9 °F 30% 30.30 in 10.0 mi NNE 19.6 mph 28.8 mph N/A   Clear
7:35 AM 54.3 °F - 23.5 °F 30% 30.31 in 10.0 mi NNE 20.7 mph 26.5 mph N/A   Clear
7:55 AM 54.1 °F - 23.4 °F 30% 30.33 in 10.0 mi NNE 18.4 mph 28.8 mph N/A   Clear
8:15 AM 54.0 °F - 23.0 °F 30% 30.34 in 10.0 mi NNE 20.7 mph 26.5 mph N/A   Clear
8:35 AM 53.8 °F - 23.5 °F 31% 30.35 in 10.0 mi NNE 18.4 mph 25.3 mph N/A   Clear
8:55 AM 54.1 °F - 23.7 °F 31% 30.37 in 10.0 mi NNE 18.4 mph 28.8 mph N/A   Clear
9:15 AM 54.5 °F - 24.6 °F 31% 30.38 in 10.0 mi NNE 18.4 mph - N/A   Clear
9:35 AM 55.4 °F - 25.5 °F 32% 30.39 in 10.0 mi NNE 12.7 mph 21.9 mph N/A   Clear
9:55 AM 56.5 °F - 24.8 °F 30% 30.41 in 10.0 mi NNE 12.7 mph 23.0 mph N/A   Clear
10:15 AM 57.7 °F - 24.8 °F 28% 30.41 in 10.0 mi NNE 15.0 mph 20.7 mph N/A   Clear
10:35 AM 57.9 °F - 23.9 °F 27% 30.42 in 10.0 mi North 15.0 mph 21.9 mph N/A   Clear
10:55 AM 59.5 °F - 23.9 °F 25% 30.42 in 10.0 mi North 12.7 mph 20.7 mph N/A   Clear
11:15 AM 60.8 °F - 23.0 °F 23% 30.42 in 10.0 mi NNE 18.4 mph 24.2 mph N/A   Clear
11:35 AM 62.1 °F - 23.4 °F 23% 30.41 in 10.0 mi North 15.0 mph 20.7 mph N/A   Clear
11:55 AM 63.0 °F - 22.6 °F 21% 30.41 in 10.0 mi North 16.1 mph 20.7 mph N/A   Clear
12:15 PM 63.5 °F - 22.3 °F 21% 30.39 in 10.0 mi NNW 13.8 mph 21.9 mph N/A   Clear
12:35 PM 63.3 °F - 22.5 °F 21% 30.38 in 10.0 mi NNW 15.0 mph 19.6 mph N/A   Clear
12:55 PM 64.0 °F - 21.9 °F 20% 30.37 in 10.0 mi North 13.8 mph 20.7 mph N/A   Clear
1:15 PM 65.3 °F - 22.8 °F 20% 30.35 in 10.0 mi North 10.4 mph 18.4 mph N/A   Clear
1:35 PM 66.4 °F - 22.1 °F 19% 30.34 in 10.0 mi North 15.0 mph 20.7 mph N/A   Clear
1:55 PM 65.8 °F - 21.6 °F 19% 30.33 in 10.0 mi NNW 13.8 mph 21.9 mph N/A   Clear
2:15 PM 66.4 °F - 21.7 °F 18% 30.33 in 10.0 mi North 15.0 mph - N/A   Clear
2:35 PM 66.9 °F - 21.7 °F 18% 30.32 in 10.0 mi NNW 13.8 mph 19.6 mph N/A   Clear
2:55 PM 66.7 °F - 21.7 °F 18% 30.31 in 10.0 mi North 9.2 mph 21.9 mph N/A   Clear
3:15 PM 66.2 °F - 20.7 °F 18% 30.31 in 10.0 mi North 11.5 mph 17.3 mph N/A   Clear
3:35 PM 67.1 °F - 21.0 °F 17% 30.30 in 10.0 mi North 10.4 mph 18.4 mph N/A   Clear
3:55 PM 66.9 °F - 20.5 °F 17% 30.29 in 10.0 mi NW 10.4 mph 21.9 mph N/A   Clear
4:15 PM 67.1 °F - 20.7 °F 17% 30.29 in 10.0 mi NNW 9.2 mph - N/A   Clear
4:35 PM 67.1 °F - 20.8 °F 17% 30.28 in 10.0 mi NNW 8.1 mph - N/A   Clear
4:55 PM 66.6 °F - 20.1 °F 17% 30.28 in 10.0 mi NW 6.9 mph - N/A   Clear
5:15 PM 66.0 °F - 19.9 °F 17% 30.28 in 10.0 mi North 8.1 mph - N/A   Clear
5:35 PM 65.1 °F - 20.1 °F 18% 30.28 in 10.0 mi North 4.6 mph - N/A   Clear
5:55 PM 63.1 °F - 20.1 °F 19% 30.28 in 10.0 mi North 5.8 mph - N/A   Clear
6:15 PM 61.0 °F - 19.9 °F 21% 30.28 in 10.0 mi North 4.6 mph - N/A   Clear
6:35 PM 60.1 °F - 19.6 °F 21% 30.28 in 10.0 mi North 3.5 mph - N/A   Clear
6:55 PM 58.6 °F - 20.1 °F 22% 30.28 in 10.0 mi Calm Calm - N/A   Clear
7:15 PM 57.7 °F - 19.9 °F 23% 30.28 in 10.0 mi NNE 3.5 mph - N/A   Clear
7:35 PM 55.0 °F - 20.5 °F 26% 30.28 in 10.0 mi NNE 3.5 mph - N/A   Clear
7:55 PM 55.4 °F - 20.3 °F 25% 30.28 in 10.0 mi NNE 3.5 mph - N/A   Clear
8:15 PM 52.2 °F - 20.7 °F 29% 30.28 in 10.0 mi NNE 4.6 mph - N/A   Clear
8:35 PM 51.3 °F - 20.3 °F 30% 30.27 in 10.0 mi NE 4.6 mph - N/A   Clear
8:55 PM 50.2 °F - 20.5 °F 31% 30.27 in 10.0 mi ENE 3.5 mph - N/A   Clear
9:15 PM 50.9 °F - 20.7 °F 30% 30.27 in 10.0 mi ENE 4.6 mph - N/A   Clear
9:35 PM 50.2 °F - 21.2 °F 32% 30.27 in 10.0 mi ENE 3.5 mph - N/A   Clear
9:55 PM 50.4 °F - 21.2 °F 32% 30.26 in 10.0 mi ENE 4.6 mph - N/A   Clear
10:15 PM 49.6 °F - 21.2 °F 33% 30.27 in 10.0 mi NE 3.5 mph - N/A   Clear
10:35 PM 48.6 °F - 21.9 °F 35% 30.27 in 10.0 mi ENE 3.5 mph - N/A   Clear
10:55 PM 46.8 °F - 21.4 °F 37% 30.26 in 10.0 mi ENE 4.6 mph - N/A   Clear
11:15 PM 45.3 °F 44.0 °F 21.4 °F 39% 30.26 in 10.0 mi ENE 3.5 mph - N/A   Clear
11:35 PM 47.1 °F - 21.6 °F 36% 30.26 in 10.0 mi ENE 4.6 mph - N/A   Clear
11:55 PM 42.3 °F 40.5 °F 22.1 °F 45% 30.25 in 10.0 mi East 3.5 mph - N/A   Clear